Simultaneous Nadir Overpasses (SNOs) Predictions

Prediction of SNOs between AQUA and METOP-C Satellite Orbit:

Table of predicted SNOs for the next 14.0 days since TLE Epoch: 5/9/2023
Index Date (AQUA) Time (AQUA) Lat,Lon (AQUA) SZA (AQUA ) Date (METOP-C) Time (METOP-C) Lat,Lon (METOP-C) SZA (METOP-C ) Distance(km) Time Diff (sec)
1 05/09/2023 20:25:59 74.44,-130.83 56.93 05/09/2023 20:25:37 74.41,-130.82 56.90 3.47 22
2 05/09/2023 21:15:24 -74.50, 36.68 123.03 05/09/2023 21:16:16 -74.49, 36.73 123.04 1.42 52
3 05/12/2023 13:29:15 -73.84, 154.75 124.41 05/12/2023 13:28:09 -73.75, 151.96 124.43 87.00 66
4 05/12/2023 14:18:52 74.43, -39.00 56.21 05/12/2023 14:18:36 74.42, -39.04 56.20 1.39 16
5 05/12/2023 15:08:17 -74.48, 128.52 123.75 05/12/2023 15:09:15 -74.51, 128.52 123.73 2.97 58
6 05/15/2023 07:22:11 -74.09,-114.03 124.81 05/15/2023 07:21:01 -74.05,-115.56 124.81 46.91 70
7 05/15/2023 08:11:43 74.43, 52.81 55.54 05/15/2023 08:11:34 74.42, 52.71 55.53 2.97 9
8 05/15/2023 09:01:09 -74.54,-139.80 124.36 05/15/2023 09:02:13 -74.52,-139.71 124.39 3.29 64
9 05/18/2023 01:15:07 -74.36, -22.85 125.16 05/18/2023 01:13:54 -74.34, -23.08 125.17 7.24 73
10 05/18/2023 02:04:34 74.45, 144.58 54.93 05/18/2023 02:04:32 74.46, 144.56 54.94 1.32 2
11 05/18/2023 02:53:59 -74.50, -47.89 125.03 05/18/2023 02:55:12 -74.51, -47.97 125.02 2.64 73
12 05/20/2023 19:07:57 -74.39, 68.90 125.72 05/20/2023 19:06:51 -74.42, 68.89 125.68 3.46 66
13 05/20/2023 19:57:24 74.48,-123.67 54.37 05/20/2023 19:57:30 74.49,-123.62 54.38 1.66 6



Historial Predications of SNOs between AQUA and METOP-C
